This demonstration page uses our WeatherBlox Daily Observations layout. Learn more.

Left ArrowRight Arrow

44.8408, -93.29828

Hourly Observations for February 22, 2022

Temp ( °F °C ) Dew Point ( °F °C ) Humidity (%) Winds ( mph kmh ) Pressure ( in mb ) Visibility ( mi km ) Precip ( " mm )
12:53 am 00:53 Cloudy with Light Snow 14 -10 6 -14.4 71 71 NNE 16 26 30.12 1020 9 14 0.00 0.00
1:53 am 01:53 Cloudy with Light Snow 14 -10 7 -13.9 73 73 NE 18 30 30.10 1019 6 10 0.00 0.00
2:53 am 02:53 Cloudy with Light Snow 11 -11.7 5 -15 77 77 N 17 28 30.07 1018 3 5 0.00 0.00
3:53 am 03:53 Cloudy with Light Snow 10 -12.2 4 -15.6 76 76 N 15 24 30.07 1018 7 11 0.00 0.00
4:53 am 04:53 Cloudy with Light Snow 9 -12.8 4 -15.6 80 80 N 13 20 30.11 1020 6 10 0.00 0.00
5:53 am 05:53 Cloudy with Light Snow 9 -12.8 4 -15.6 80 80 N 18 30 30.09 1019 3 5 0.01 0.25
6:00 am 06:00 Cloudy with Light Snow 9 -12.8 4 -15.6 80 80 N 17 28 30.13 1020 2 3 0.00 0.00
6:22 am 06:22 Cloudy with Light Snow 8 -13.3 4 -15.6 83 83 N 14 22 30.14 1021 2 3 0.00 0.00
6:53 am 06:53 Windy with Snow Likely 8 -13.3 3 -16.1 80 80 N 20 31 30.08 1019 2 3 0.00 0.00
6:58 am 06:58 Cloudy with Light Snow 8 -13.3 3 -16.1 80 80 N 17 28 30.12 1020 2 3 0.00 0.00
7:17 am 07:17 Windy with Snow Likely 8 -13.3 3 -16.1 80 80 N 21 33 30.10 1019 2 3 0.00 0.00
7:53 am 07:53 Windy with Snow Likely 8 -13.3 2 -16.7 76 76 N 20 31 30.06 1018 4 6 0.00 0.00
8:01 am 08:01 Windy with Snow Likely 8 -13.3 2 -16.7 76 76 N 22 35 30.09 1019 2 3 0.00 0.00
8:11 am 08:11 Windy with Snow Likely 7 -13.9 2 -16.7 80 80 N 22 35 30.09 1019 2 2 0.00 0.00
8:18 am 08:18 Mostly Cloudy with Light Snow 8 -13.3 2 -16.7 76 76 N 24 39 30.09 1019 1 2 0.00 0.00
8:28 am 08:28 Mostly Cloudy with Light Snow 7 -13.9 2 -16.7 80 80 N 24 39 30.09 1019 1 1 0.00 0.00
8:53 am 08:53 Cloudy with Light Snow 7 -13.9 2 -16.7 80 80 N 18 30 30.04 1017 1 2 0.00 0.00
9:02 am 09:02 Cloudy with Light Snow 7 -13.9 1 -17.2 76 76 N 18 30 30.10 1019 2 2 0.01 0.25
9:09 am 09:09 Cloudy with Light Snow 7 -13.9 1 -17.2 76 76 N 17 28 30.10 1019 2 3 0.01 0.25
9:53 am 09:53 Cloudy with Light Snow 7 -13.9 1 -17.2 76 76 N 18 30 30.07 1018 2 3 0.01 0.25
10:12 am 10:12 Windy with Snow Likely 7 -13.9 0 -17.8 73 73 N 21 33 30.13 1020 1 2 0.01 0.25
10:18 am 10:18 Windy with Snow Likely 7 -13.9 0 -17.8 73 73 N 21 33 30.13 1020 1 1 0.01 0.25
10:29 am 10:29 Mostly Cloudy with Heavy Snow 7 -13.9 1 -17.2 76 76 N 16 26 30.15 1021 0 0 0.01 0.25
10:37 am 10:37 Mostly Cloudy with Heavy Snow 7 -13.9 1 -17.2 76 76 N 15 24 30.15 1021 0 0 0.02 0.51
10:50 am 10:50 Mostly Cloudy with Heavy Snow 7 -14 1 -17 78 78 N 16 26 30.14 1021 0 0 0.04 1.02
10:53 am 10:53 Mostly Cloudy with Heavy Snow 7 -13.9 2 -16.7 80 80 N 16 26 30.10 1019 0 0 0.05 1.27
11:06 am 11:06 Mostly Cloudy with Heavy Snow 7 -13.9 2 -16.7 80 80 N 17 28 30.15 1021 0 0 0.01 0.25
11:20 am 11:20 Mostly Cloudy with Heavy Snow 7 -13.9 2 -16.7 80 80 N 16 26 30.16 1021 0 0 0.03 0.76
11:53 am 11:53 Mostly Cloudy with Heavy Snow 6 -14.4 1 -17.2 79 79 N 20 31 30.12 1020 0 0 0.04 1.02
12:00 pm 12:00 Mostly Cloudy with Snow 6 -14.4 1 -17.2 79 79 N 21 33 30.17 1022 0 0 0.01 0.25
12:08 pm 12:08 Mostly Cloudy with Light Snow 7 -13.9 2 -16.7 80 80 N 23 37 30.17 1022 1 1 0.01 0.25
12:18 pm 12:18 Mostly Cloudy with Light Snow 7 -13.9 1 -17.2 76 76 NNW 22 35 30.17 1022 1 1 0.01 0.25
12:29 pm 12:29 Mostly Cloudy with Snow 7 -13.9 2 -16.7 80 80 N 18 30 30.17 1022 1 1 0.02 0.51
12:39 pm 12:39 Mostly Cloudy with Heavy Snow 6 -14.4 1 -17.2 79 79 N 18 30 30.17 1022 0 0 0.02 0.51
12:53 pm 12:53 Mostly Cloudy with Heavy Snow 6 -14.4 1 -17.2 79 79 N 20 31 30.13 1020 0 0 0.03 0.76
1:06 pm 13:06 Mostly Cloudy with Snow 6 -14.4 1 -17.2 79 79 N 18 30 30.17 1022 1 1 0.01 0.25
1:22 pm 13:22 Mostly Cloudy with Light Snow 7 -13.9 2 -16.7 80 80 N 22 35 30.18 1022 1 1 0.02 0.51
1:53 pm 13:53 Mostly Cloudy with Snow 7 -13.9 1 -17.2 76 76 N 15 24 30.12 1020 1 1 0.02 0.51
1:56 pm 13:56 Mostly Cloudy with Snow 7 -13.9 2 -16.7 80 80 N 16 26 30.18 1022 1 1 0.00 0.00
2:02 pm 14:02 Mostly Cloudy with Light Snow 7 -13.9 1 -17.2 76 76 NNW 21 33 30.18 1022 1 1 0.00 0.00
2:13 pm 14:13 Windy with Snow Likely 7 -13.9 1 -17.2 76 76 NNW 20 31 30.19 1022 1 1 0.01 0.25
2:29 pm 14:29 Cloudy with Light Snow 8 -13.3 1 -17.2 73 73 NNW 17 28 30.20 1023 2 3 0.02 0.51
2:53 pm 14:53 Mostly Cloudy with Light Snow 8 -13.3 1 -17.2 73 73 N 13 20 30.16 1022 2 3 0.02 0.51
3:30 pm 15:30 Cloudy with Light Snow 8 -13.3 0 -17.8 69 69 NNW 16 26 30.24 1024 6 10 0.00 0.00
3:37 pm 15:37 Cloudy with Light Snow 7 -13.9 0 -17.8 73 73 N 18 30 30.23 1024 4 6 0.00 0.00
3:51 pm 15:51 Cloudy with Light Snow 9 -13 0 -18 66 66 NNW 16 26 30.25 1024 2 3 0.00 0.00
3:53 pm 15:53 Cloudy with Light Snow 8 -13.3 0 -17.8 69 69 NNW 14 22 30.21 1023 2 3 0.00 0.00
4:02 pm 16:02 Cloudy with Light Snow 8 -13.3 0 -17.8 69 69 N 17 28 30.25 1024 2 3 0.00 0.00
4:53 pm 16:53 Cloudy with Light Snow 8 -13.3 0 -17.8 69 69 NNW 17 28 30.25 1025 2 3 0.00 0.00
5:01 pm 17:01 Cloudy with Light Snow 8 -13.3 0 -17.8 69 69 NNW 16 26 30.31 1026 2 3 0.00 0.00
5:53 pm 17:53 Cloudy with Light Snow 7 -13.9 0 -17.8 73 73 NNW 16 26 30.31 1026 2 3 0.01 0.25
6:09 pm 18:09 Cloudy with Light Snow 7 -13.9 0 -17.8 73 73 NNW 17 28 30.36 1028 2 3 0.00 0.00
6:53 pm 18:53 Cloudy with Light Snow 6 -14.4 -1 -18.3 73 73 N 17 28 30.34 1027 2 3 0.00 0.00
7:09 pm 19:09 Windy with Snow Likely 6 -14.4 0 -17.8 76 76 NNW 22 35 30.39 1029 2 3 0.00 0.00
7:53 pm 19:53 Cloudy with Light Snow 6 -14.4 -1 -18.3 73 73 N 15 24 30.36 1028 2 3 0.00 0.00
8:46 pm 20:46 Cloudy with Light Snow 6 -14.4 -2 -18.9 69 69 NNW 13 20 30.44 1031 2 3 0.00 0.00
8:53 pm 20:53 Cloudy with Light Snow 6 -14.4 -2 -18.9 69 69 NNW 16 26 30.41 1030 2 3 0.00 0.00
8:56 pm 20:56 Cloudy with Light Snow 6 -14.4 -2 -18.9 69 69 NNW 15 24 30.45 1031 5 8 0.00 0.00
9:53 pm 21:53 Cloudy with Light Snow 6 -14.4 -2 -18.9 69 69 N 16 26 30.44 1031 3 5 0.00 0.00
10:05 pm 22:05 Cloudy with Light Snow 5 -15 -2 -18.9 72 72 NNW 10 17 30.49 1033 4 6 0.00 0.00
10:40 pm 22:40 Mostly Cloudy with Light Snow 5 -15 -3 -19.4 69 69 NNW 10 17 30.50 1033 5 8 0.00 0.00
10:53 pm 22:53 Mostly Cloudy with Light Snow 5 -15 -3 -19.4 69 69 NW 15 24 30.48 1032 9 14 0.00 0.00
11:08 pm 23:08 Mostly Cloudy 4 -15.6 -3 -19.4 73 73 NW 13 20 30.53 1034 7 11 0.00 0.00
11:16 pm 23:16 Partly Cloudy 3 -16.1 -4 -20 72 72 NW 13 20 30.53 1034 7 11 0.00 0.00
11:53 pm 23:53 Mostly Clear 2 -16.7 -5 -20.6 72 72 NW 14 22 30.52 1033 9 14 0.00 0.00

Powered by AerisWeather